Location: Newark
(33.6333°S, 78.8500°W)
Time: 10:51:31
(UTC+00:00)

Tiros 1 despin weight - Pass Details

Date: 22 September 2019
Orbit: 594 x 643 km, 48.2° (Epoch: 14 October)

Event Time Altitude Azimuth Distance (km) Brightness Sun altitude
Rises 07:13:33 0° 242° (WSW) 2,916 - -45.7°
Reaches altitude 10° 07:17:01 10° 215° (SW) 2,022 - -45.1°
Maximum altitude 07:19:22 14° 185° (S) 1,800 - -44.7°
Drops below altitude 10° 07:21:44 10° 155° (SSE) 2,038 - -44.4°
Exits shadow 07:23:18 - 140° (SE) 2,393 ? -44.1°
Sets 07:25:15 0° 128° (SE) 2,956 ? -43.8°
